SCP
1 2 2 3 3 2 1 1 0 0 0 0 1 1 2 2 2 2 1 1 1 1 1 0 0 0 0 1 1 1 1 0 1 1 1 0 0 0 0 0 0 0 0
1 1 2 2 2 2 1 0 0 0 0 0 1 1 1 2 2 2 1 1 1 1 1 0 0 0 0 0 1 1 1 0 0 1 1 0 0 0 0 0 0 0 0
1 1 2 2 2 1 1 0 0 0 0 0 0 0 1 1 1 1 1 1 1 1 1 0 0 0 0 0 0 1 0 0 0 0 0 0 0 0 0 0 0 0 0
0 1 1 2 1 1 0 0 0 0 0 0 0 0 1 1 1 1 1 1 1 1 1 0 0 0 0 0 0 0 0 0 0 0 0 0 0 0 0 0 0 0 0
0 0 1 1 1 1 0 0 0 0 0 0 0 0 0 0 1 1 1 1 1 1 1 1 0 0 0 0 0 0 0 0 0 0 0 0 0 0 0 0 0 0 0
0 0 0 0 1 1 0 0 0 0 0 0 0 0 0 0 0 1 1 1 1 1 1 1 1 1 0 0 0 0 0 0 0 0 0 0 0 0 0 0 0 0 0
0 0 0 0 0 0 0 0 0 0 0 0 0 0 0 0 0 0 0 0 1 1 1 1 1 1 0 0 0 0 0 0 0 0 0 0 0 0 0 0 0 0 0
0 0 0 0 0 0 0 0 0 0 0 0 0 0 0 0 0 0 0 0 0 0 0 0 0 0 0 0 0 0 0 0 0 0 0 0 0 0 0 0 0 0 0
0 0 0 0 0 0 0 0 0 0 0 0 0 0 0 0 0 0 0 0 0 0 0 0 0 0 0 0 0 0 0 0 0 0 0 0 0 0 0 0 0 0 0
0 0 0 0 0 0 0 0 0 0 0 0 0 0 0 0 0 0 0 0 0 0 0 0 1 0 0 0 0 0 0 0 0 0 0 0 0 0 0 0 0 0 0
0 0 0 0 0 0 0 0 0 0 0 0 0 0 0 0 0 0 0 0 0 0 0 0 1 0 0 0 0 0 0 0 0 0 0 0 0 0 0 0 0 0 0
0 0 0 0 0 0 0 0 0 0 0 0 0 0 0 0 0 0 0 0 0 0 0 0 0 0 0 0 0 0 0 0 0 0 0 0 0 0 0 0 0 0 0
0 0 0 0 0 0 0 0 0 0 0 0 0 0 0 0 0 0 0 0 0 0 0 0 0 0 0 0 0 0 0 0 0 0 0 0 0 0 0 0 0 0 0
0 0 0 0 0 0 0 0 0 0 0 0 0 0 0 0 0 0 0 0 0 0 0 0 0 0 0 0 0 0 0 0 0 0 0 0 0 0 0 0 0 0 0
0 0 0 0 0 0 0 0 0 0 0 0 0 0 0 0 0 0 0 0 0 0 0 0 0 0 0 0 0 0 0 0 0 0 0 0 0 0 0 0 0 0 0
0 0 0 0 0 0 0 0 0 0 0 0 0 0 0 0 0 0 0 0 0 0 0 0 0 0 0 0 0 0 0 0 0 0 0 0 0 0 0 0 0 0 0
0 0 0 0 0 0 0 0 0 0 0 0 0 0 0 0 0 0 0 0 0 0 0 0 0 0 0 0 0 0 0 0 0 0 0 0 0 0 0 0 0 0 0
0 0 0 0 0 0 0 0 0 0 0 0 0 0 0 0 0 0 0 0 0 0 0 0 0 0 0 0 0 0 0 0 0 0 0 0 0 0 0 0 0 0 0
0 0 0 0 0 0 0 0 0 0 0 0 0 0 0 0 0 0 0 0 0 0 0 0 0 0 0 0 0 0 0 0 0 0 0 0 0 0 0 0 0 0 0
0 0 0 0 0 0 0 0 0 0 0 0 0 0 0 0 0 0 0 0 0 0 0 0 0 0 0 0 0 0 0 0 0 0 0 0 0 0 0 0 0 0 0
0 0 0 0 0 0 0 0 0 0 0 0 0 0 0 0 0 0 0 0 0 0 0 0 0 0 0 0 0 0 0 0 0 0 0 0 0 0 0 0 0 0 0
0 0 0 0 0 0 0 0 0 0 0 0 0 0 0 0 0 0 0 0 0 0 0 0 0 0 0 0 0 0 0 0 0 0 0 0 0 0 0 0 0 0 0
0 0 0 0 0 0 0 0 0 0 0 0 0 0 0 0 0 0 0 0 0 0 0 0 0 0 0 0 0 0 0 0 0 0 0 0 0 0 0 0 0 0 0
0 0 0 0 0 0 0 0 0 0 0 0 0 0 0 0 0 0 0 0 0 0 0 0 0 0 0 0 0 0 0 0 0 0 0 0 0 0 0 0 0 0 0
0 0 0 0 0 0 0 0 0 0 0 0 0 0 0 0 0 0 0 0 0 0 0 0 0 0 0 0 0 0 0 0 0 0 0 0 0 0 0 0 0 0 0
0 0 0 0 0 0 0 0 0 0 0 0 0 0 0 0 0 0 0 0 0 0 0 0 0 0 0 0 0 0 0 0 0 0 0 0 0 0 0 0 0 0 0
Wind_Speed
6 7 8 7 7 8 8 8 8 7 5 3 3 2 2 1 1 1 1 1 1 1 1 1 1 1 2 2 2 2 1 1 1 1 1 1 1 0 1 1 0 0 0
9 10 9 8 8 8 8 8 8 7 5 4 3 2 3 2 2 1 1 2 2 2 2 2 2 2 2 2 2 2 1 1 1 1 1 0 1 1 1 1 1 1 1
8 9 10 8 7 8 8 7 7 7 6 6 4 3 3 2 1 2 2 2 2 2 2 2 2 2 3 3 3 3 3 2 1 1 2 2 2 1 1 1 1 1 1
7 8 9 9 8 8 7 7 7 7 6 5 4 4 3 3 3 3 3 3 2 2 2 2 2 3 3 3 4 4 3 3 3 1 1 1 2 2 1 1 1 1 1
7 7 8 8 7 7 6 6 7 7 7 5 5 4 4 4 4 3 3 3 2 2 2 2 2 3 3 3 4 3 3 3 4 3 1 1 0 1 2 2 1 1 1
7 7 7 7 7 7 6 7 7 7 7 6 5 4 5 5 5 4 4 3 2 2 3 3 3 3 3 3 4 4 5 4 4 3 2 3 2 2 2 2 2 2 2
6 7 9 9 9 9 8 7 8 8 8 7 6 5 5 5 5 4 4 4 3 3 3 3 3 3 3 3 3 4 4 4 5 4 3 3 3 2 2 2 2 2 2
6 7 7 7 8 9 9 9 9 8 8 8 7 6 5 4 4 4 5 5 4 4 4 3 3 3 3 3 3 3 4 4 4 4 3 3 2 2 3 3 3 2 2
6 7 7 7 7 8 9 8 9 9 8 8 8 6 6 6 5 5 5 4 4 4 3 3 3 3 3 3 3 3 4 3 4 3 4 3 2 2 2 2 3 4 3
7 7 7 7 6 6 7 7 7 8 8 8 7 7 7 7 6 5 5 5 5 4 3 3 3 3 3 3 4 4 4 4 3 3 3 3 2 2 2 3 2 2 3
7 7 7 7 6 6 7 7 8 8 8 8 8 8 7 7 6 5 5 5 5 4 3 3 3 3 3 3 3 4 4 4 4 3 4 4 3 3 2 2 2 2 2
6 6 6 7 7 8 8 8 8 9 9 8 8 8 8 7 7 6 6 6 5 4 4 3 3 3 3 4 4 4 4 4 5 4 3 3 3 3 3 2 3 2 3
6 6 7 7 8 8 9 9 9 9 9 8 8 8 8 7 7 7 7 6 5 5 4 3 3 4 4 5 5 5 5 5 5 4 4 4 3 4 3 3 3 2 2
7 7 8 8 8 8 8 9 9 8 9 9 8 8 8 7 7 8 7 6 5 5 4 4 4 4 4 4 4 4 4 4 4 4 4 4 5 5 4 3 4 3 3
8 9 9 8 9 9 9 9 9 9 9 9 9 9 8 7 7 7 7 6 5 5 5 4 4 4 4 4 4 4 4 4 4 3 3 4 5 5 4 3 4 4 3
9 9 9 10 10 10 10 10 10 10 9 8 9 9 8 8 7 7 7 6 5 5 5 4 4 4 3 5 5 3 3 3 4 4 4 4 4 5 5 5 6 6 5
8 9 9 9 10 10 9 10 10 10 9 8 8 8 8 8 8 7 7 7 6 5 5 4 4 5 5 6 5 4 2 2 3 3 3 3 3 4 3 4 5 5 7
9 9 9 9 9 9 9 9 9 9 9 9 9 8 8 8 8 7 7 7 6 5 5 5 4 4 5 6 5 4 2 2 3 3 4 4 3 4 4 4 3 3 4
7 7 8 8 9 9 9 9 9 9 9 10 10 9 8 8 8 7 7 6 6 5 5 5 4 4 5 6 5 4 2 2 3 3 3 3 4 5 5 4 3 3 3
7 7 8 8 8 9 8 9 10 9 10 11 11 9 8 8 8 7 7 6 5 6 5 5 4 4 5 5 5 5 2 2 2 2 2 4 4 5 5 4 4 4 3
8 8 8 8 8 8 8 9 9 10 11 11 10 9 8 8 7 6 6 6 5 5 5 5 5 4 5 5 5 5 2 2 2 2 2 2 4 4 4 3 3 4 3
8 8 8 8 8 8 8 9 10 11 10 10 10 9 8 7 7 6 6 5 5 5 5 5 5 4 4 5 5 5 5 3 2 2 2 2 3 3 2 2 2 2 1
8 8 8 9 9 8 8 9 11 11 11 10 10 9 9 7 7 6 6 5 4 3 4 4 4 4 3 3 5 6 6 5 2 2 3 2 2 1 1 1 1 1 1
8 7 8 9 10 9 9 9 11 11 10 10 10 9 8 7 6 5 5 4 4 4 4 4 4 4 4 3 3 2 3 3 2 1 1 1 1 1 1 0 1 1 1
8 7 8 9 10 10 10 10 10 10 10 10 9 8 7 7 6 5 4 5 4 5 5 4 4 4 4 5 7 3 3 2 1 0 0 0 0 0 0 0 0 1 1
8 8 9 10 10 10 10 10 10 9 9 9 8 6 6 5 5 5 5 7 7 10 10 9 7 6 7 8 7 6 5 4 1 0 1 1 1 1 1 1 1 1 1
Wind_Direction
350 358 359 359 3 7 8 4 1 356 358 354 343 317 290 275 279 289 297 283 270 253 229 224 203 195 189 195 178 153 146 167 153 108 45 353 346 350 306 300 318 29 38
357 359 1 4 4 4 2 359 357 353 353 346 322 307 296 268 254 267 283 278 271 254 237 213 212 207 197 198 192 166 157 202 180 148 128 5 339 336 325 291 212 193 84
355 352 355 356 359 2 357 351 347 346 347 348 344 343 346 331 323 311 297 285 270 261 261 235 217 207 197 203 205 195 184 193 237 210 172 168 204 276 298 270 241 210 174
353 353 353 353 355 351 348 347 345 347 348 353 357 356 342 320 306 298 285 282 265 259 263 253 230 214 210 207 210 209 199 182 201 245 258 203 167 177 235 298 290 267 229
350 350 350 346 347 346 347 344 344 349 350 350 348 347 335 317 315 315 293 283 270 255 254 251 239 230 223 213 212 212 208 199 198 199 203 186 356 216 182 230 257 294 274
347 346 347 349 349 350 353 352 351 348 347 346 341 339 329 324 320 317 305 290 277 264 256 256 240 236 230 216 214 215 216 215 208 205 200 187 183 194 189 206 228 244 267
347 349 350 351 351 352 350 350 350 345 344 341 336 326 315 310 304 299 289 292 287 277 258 262 249 242 240 229 215 215 222 216 208 206 217 211 207 190 188 191 215 242 269
346 345 343 344 345 346 347 349 345 340 339 337 331 324 315 308 305 303 294 279 275 272 260 253 252 249 244 234 218 221 226 220 214 215 219 216 212 200 189 190 187 220 260
341 338 338 343 344 344 344 343 338 335 335 334 330 326 325 319 309 303 295 287 286 289 270 257 253 248 241 231 218 224 224 220 218 215 220 219 214 207 204 198 193 189 220
339 338 337 338 337 336 336 338 336 334 331 330 331 330 326 322 314 311 308 304 299 296 283 267 257 251 248 242 225 224 217 214 223 222 217 220 219 206 201 199 206 208 204
336 334 334 335 334 337 337 338 339 339 337 335 331 327 324 322 320 316 311 308 306 297 285 264 257 248 243 246 238 227 216 210 216 226 214 220 212 205 201 194 194 207 197
332 334 335 339 344 343 341 342 339 337 334 332 331 327 324 325 323 318 316 311 307 301 289 275 260 256 246 238 237 232 221 213 215 215 206 218 211 202 197 191 199 210 207
337 341 343 346 343 341 340 339 337 334 332 331 330 329 327 326 320 316 316 312 307 302 295 287 265 258 251 245 236 228 223 222 215 207 207 215 205 208 202 195 198 208 209
339 343 344 341 337 336 336 333 332 332 332 332 331 329 324 320 315 313 316 311 305 300 293 286 279 268 261 250 241 235 228 221 218 214 213 213 209 209 202 200 199 197 201
340 341 339 334 333 334 335 334 331 331 331 330 329 325 321 318 317 317 318 314 309 304 294 286 289 278 263 250 243 231 228 222 218 216 219 221 218 217 211 207 198 194 201
331 332 333 332 332 331 330 331 329 329 328 326 322 322 323 322 320 317 317 315 308 304 302 295 291 287 274 271 269 254 229 222 215 216 219 224 221 223 227 225 218 210 207
323 327 326 324 323 323 323 324 322 323 324 321 320 320 323 322 319 316 317 315 308 307 306 298 291 286 282 279 274 274 255 222 220 217 212 221 224 219 210 218 225 231 232
320 320 320 321 319 319 321 320 321 324 324 321 320 319 321 319 318 317 314 312 307 303 299 297 290 288 290 289 285 280 260 233 231 229 216 209 217 218 207 202 213 227 236
308 309 312 313 317 320 322 323 324 326 325 324 320 317 316 314 315 315 314 311 308 304 299 297 295 292 291 288 287 290 250 243 247 245 231 216 216 227 217 198 202 225 246
315 315 315 315 318 318 321 324 323 325 324 320 315 313 314 311 310 309 311 313 309 302 303 300 295 289 288 285 288 289 244 240 250 253 246 246 240 229 219 199 194 214 232
315 317 317 316 315 318 323 322 320 319 316 315 315 316 314 309 304 304 308 310 308 307 304 301 299 293 290 291 292 292 259 235 242 251 253 255 260 250 234 223 209 219 216
318 319 318 315 317 322 324 319 316 314 315 316 316 315 313 308 308 307 308 310 308 308 305 304 304 299 296 299 296 293 291 285 244 245 248 248 257 259 248 236 225 216 192
313 316 314 314 317 322 322 315 313 316 317 317 315 314 312 308 308 307 306 309 306 304 307 304 302 303 304 298 299 294 296 295 272 244 253 260 256 264 240 237 237 199 179
312 315 316 316 316 320 319 311 312 316 317 315 313 312 312 311 310 305 303 303 301 301 302 304 299 300 303 298 287 277 282 284 278 254 238 302 302 279 293 284 276 243 202
312 313 312 311 311 316 316 315 317 319 316 313 311 311 310 307 305 306 300 298 289 295 300 299 297 297 300 303 305 298 283 265 258 293 83 30 197 208 220 255 242 227 196
311 313 312 312 313 315 315 316 318 319 317 314 314 311 310 309 307 307 311 311 309 313 312 314 309 302 305 313 314 312 305 291 268 221 196 232 227 230 227 225 244 238 215